TA7BSS Weather Reports


time (UTC)temp
C
wind
direction
speed
KPH
gust
KPH
rain 1hr
cm
rain 24hr
cm
rain mn
cm
humidity
%
barometer
mb
20260906120118 25 0 0.0 16.1 0.00 0.00 0.00 67
20260906113114 25 0 0.0 14.5 0.00 0.00 0.00 64
20260906110111 26 0 0.0 14.5 0.00 0.00 0.00 63
20260906103107 26 0 0.0 12.9 0.00 0.00 0.00 62
20260906100104 25 0 0.0 11.3 0.00 0.00 0.00 61
20260906090057 25 0 0.0 11.3 0.00 0.00 0.00 58
20260906083054 25 0 0.0 11.3 0.00 0.00 0.00 57
20260906080051 25 0 0.0 11.3 0.00 0.00 0.00 57
20260906073047 25 0 0.0 8.0 0.00 0.00 0.00 58
20260906070043 24 0 0.0 6.4 0.00 0.00 0.00 60
20260906063039 23 0 0.0 1.6 0.00 0.00 0.00 61
20260906060035 22 0 0.0 1.6 0.00 0.00 0.00 63
20260906053031 21 0 0.0 4.8 0.00 0.00 0.00 71
20260906050027 20 0 0.0 8.0 0.00 0.00 0.00 79
20260906043022 17 0 0.0 9.7 0.00 0.00 0.00 83
20260906040018 16 0 0.0 11.3 0.00 0.00 0.00 85
20260906033014 15 0 0.0 11.3 0.00 0.00 0.00 89
20260906030010 0 0 0.0 0.0 0.00 0.00 0.00 100
20260906023007 15 0 0.0 11.3 0.00 0.00 0.00 92
20260906020004 0 0 0.0 0.0 0.00 0.00 0.00 100
20260906013000 15 0 0.0 11.3 0.00 0.00 0.00 93
20260906005957 16 0 0.0 11.3 0.00 0.00 0.00 93
20260906002953 16 0 0.0 11.3 0.00 0.00 0.00 95
20260905235950 16 0 0.0 11.3 0.00 0.00 0.00 95
20260905232947 16 0 0.0 11.3 0.00 0.00 0.00 95
20260905225944 16 0 0.0 11.3 0.00 0.00 0.00 95
20260905222940 16 0 0.0 9.7 0.00 0.00 0.00 95
20260905215937 16 0 0.0 9.7 0.00 0.00 0.00 95
20260905212934 17 0 0.0 9.7 0.00 0.00 0.00 96
20260905205930 17 0 0.0 9.7 0.00 0.00 0.00 96
20260905202927 17 0 0.0 9.7 0.00 0.00 0.00 96
20260905195924 17 0 0.0 9.7 0.00 0.00 0.00 96
20260905192920 18 0 0.0 8.0 0.00 0.00 0.00 97
20260905185917 18 0 0.0 8.0 0.00 0.00 0.00 96
20260905182914 20 0 0.0 8.0 0.00 0.00 0.00 92
20260905175910 20 0 0.0 6.4 0.00 0.00 0.00 89
20260905172907 21 0 0.0 4.8 0.00 0.00 0.00 90
20260905165903 21 0 0.0 3.2 0.00 0.00 0.00 88
20260905162901 22 0 0.0 3.2 0.00 0.00 0.00 87
20260905155857 22 0 0.0 4.8 0.00 0.00 0.00 84
20260905152853 23 0 0.0 6.4 0.00 0.00 0.00 80
20260905145850 24 0 0.0 8.0 0.00 0.00 0.00 77
20260905142847 25 0 0.0 9.7 0.00 0.00 0.00 75
20260905135843 25 0 0.0 11.3 0.00 0.00 0.00 73
20260905132840 25 0 0.0 11.3 0.00 0.00 0.00 71
20260905125837 25 0 0.0 12.9 0.00 0.00 0.00 70
20260905122833 25 0 0.0 12.9 0.00 0.00 0.00 72